カタログに戻る

STARLINK-36711

運用中通信VLEO
NORAD 68040·PAYLOAD·🇺🇸 United States

打ち上げ Mar 2, 2026 から Vandenberg Space Force Base

Loading…

次のパス (今後24時間)

TLE

最新Source: CelesTrak SupGP

元期: Sep 15, 2026, 03:38 UTC

1 68040C 26041A   26258.15187500 -.00051875  00000+0 -15325-2 0  2584
2 68040  53.1577 244.7286 0001210  93.1110  63.6426 15.34418958    16

AllMySatでSTARLINK-36711をリアルタイム追跡

Download on the App Store